Airfield :
LOGIN :

Register | Disclaimer

   EN    FR    IT 

 










Legend :    VFR   Marginal VFR   IFR   Intensive IFR   Very Intensive IFR
Visi :
Ceiling :
>= 8 km
>= 3000ft
5 to 8 km
1000 to 3000 ft
1500m to 5 km
500 to 1000 ft
800 to 1500m
200 to 500 ft
< 800m
< 200 ft
Symbols :   Thunderstorms  Fog  Heavy snow  Heavy precipitations  Wind > 20 kt
SIGMETs :     Misc.  Thunderstorms  Icing  Turbulence  Mountain Waves  Volcanic Ashes







- Airport Elevation : 28 ft
- IATA code : SOZ
- Download approach charts


LFKS - Solenzara

CURRENT METAR :
  • 181730Z AUTO 28004KT CAVOK 19/17 Q1012

EXPIRED METARs :
  • 181700Z AUTO 28003KT 250V320 CAVOK 20/17 Q1012
  • 181630Z AUTO 32003KT CAVOK 20/18 Q1012
  • 181600Z AUTO 34003KT CAVOK 21/18 Q1012
  • 181530Z AUTO 35003KT 9999 FEW086 22/19 Q1012
  • 181500Z AUTO 05003KT 010V090 9999 FEW021 22/19 Q1012

TAF TAF LFKS
Valid from the 18 at 09:00 until the 19 at 09:00 UTC


180800Z 1809/1909 34003KT 9999 BKN040
BECMG 1818/1820 FEW050
No reported NOTAMs for that airfield.



MET'MAP, your aeronautical weather chart ! - Copyright ORBIFLY December 2007 - Disclaimer

ORBIFLY MET'MAP TEAM :

Programming & Development : Alexandra Zaïnal
Concept & Development : Baudouin d'Aumeries
Co-Development & Prog : Marc-Olivier Méhu
Technical & hardware support : Manuel Goepfert

Contact : metmap@orbifly.com




SOURCES & CREDITS :

   NOAA